EJU98ZA EDDH-LIMC

Flight info

Callsign EJU98ZA
Flight time 1h 25m
Altitude 37000
Route IDEKO7G/33 IDEKO N850 XAROL DCT BOMBI DCT GIGET DCT ABUKA DCT KRH DCT NATOR DCT DITON DCT BASGO Z424 RIXUV
Aircraft A319/M-SDE3FGHIRWY/LB1

Departure

Time 2026-04-26 20:06
Airport Hamburg Helmut Schmidt Airport (EDDH)

Arrival

Time 2026-04-26 21:32
Airport Milan Malpensa International Airport (LIMC)
Time Latitude Longitude Altitude Speed Heading
2026-04-26 19:47 53.62741 10.00314 49 ft 0 kts 62°
2026-04-26 19:58 53.62737 10.00303 48 ft 3 kts 62°
2026-04-26 19:58 53.62729 10.00275 48 ft 3 kts 62°
2026-04-26 19:59 53.62720 10.00247 48 ft 3 kts 72°
2026-04-26 19:59 53.62718 10.00215 48 ft 3 kts 116°
2026-04-26 19:59 53.62727 10.00195 48 ft 0 kts 142°
2026-04-26 19:59 53.62740 10.00179 48 ft 3 kts 142°
2026-04-26 20:00 53.62753 10.00160 48 ft 3 kts 148°
2026-04-26 20:00 53.62761 10.00153 48 ft 0 kts 158°
2026-04-26 20:02 53.62754 10.00158 48 ft 5 kts 158°
2026-04-26 20:02 53.62692 10.00205 48 ft 9 kts 154°
2026-04-26 20:02 53.62673 10.00221 48 ft 9 kts 154°
2026-04-26 20:03 53.62577 10.00235 48 ft 10 kts 239°
2026-04-26 20:03 53.62566 10.00189 47 ft 0 kts 247°
2026-04-26 20:04 53.62555 10.00148 47 ft 7 kts 247°
2026-04-26 20:04 53.62546 10.00059 47 ft 8 kts 278°
2026-04-26 20:04 53.62588 9.99987 47 ft 7 kts 332°
2026-04-26 20:04 53.62593 9.99982 47 ft 0 kts 332°
2026-04-26 20:05 53.62605 9.99971 47 ft 8 kts 332°
2026-04-26 20:06 53.62934 9.99684 45 ft 98 kts 333°
2026-04-26 20:06 53.63767 9.98965 116 ft 160 kts 333°
2026-04-26 20:06 53.64762 9.98138 889 ft 161 kts 333°
2026-04-26 20:06 53.65786 9.97298 1633 ft 169 kts 333°
2026-04-26 20:07 53.66905 9.96338 2141 ft 193 kts 332°
2026-04-26 20:07 53.68158 9.95254 2884 ft 207 kts 332°
2026-04-26 20:07 53.69457 9.94096 3794 ft 219 kts 326°
2026-04-26 20:07 53.70499 9.92078 4376 ft 244 kts 292°
2026-04-26 20:08 53.70660 9.89206 5273 ft 255 kts 257°
2026-04-26 20:08 53.69761 9.86630 6342 ft 262 kts 221°
2026-04-26 20:08 53.68147 9.85156 7454 ft 266 kts 204°
2026-04-26 20:08 53.66417 9.84069 8505 ft 271 kts 201°
2026-04-26 20:09 53.64618 9.83044 9491 ft 277 kts 201°
2026-04-26 20:09 53.62774 9.82016 10438 ft 282 kts 201°
2026-04-26 20:09 53.60846 9.80925 10962 ft 304 kts 202°
2026-04-26 20:09 53.58774 9.79733 11492 ft 323 kts 202°
2026-04-26 20:10 53.56623 9.78481 12270 ft 331 kts 202°
2026-04-26 20:10 53.54418 9.77187 13085 ft 338 kts 203°
2026-04-26 20:10 53.52176 9.75866 13932 ft 343 kts 203°
2026-04-26 20:10 53.49918 9.74528 14772 ft 346 kts 203°
2026-04-26 20:11 53.47629 9.73164 15587 ft 350 kts 203°
2026-04-26 20:11 53.45317 9.71790 16384 ft 354 kts 204°
2026-04-26 20:11 53.42984 9.70411 17155 ft 358 kts 204°
2026-04-26 20:12 53.38238 9.67623 18657 ft 365 kts 203°
2026-04-26 20:12 53.35833 9.66213 19377 ft 368 kts 204°
2026-04-26 20:12 53.33400 9.64784 20054 ft 372 kts 204°
2026-04-26 20:12 53.30941 9.63341 20727 ft 377 kts 204°
2026-04-26 20:13 53.28447 9.61886 21404 ft 381 kts 203°
2026-04-26 20:13 53.25931 9.60427 22047 ft 385 kts 203°
2026-04-26 20:13 53.23425 9.58972 22670 ft 388 kts 204°
2026-04-26 20:13 53.20861 9.57480 23263 ft 392 kts 203°
2026-04-26 20:14 53.18267 9.55970 23859 ft 396 kts 204°
2026-04-26 20:14 53.15653 9.54446 24457 ft 401 kts 203°
2026-04-26 20:14 53.13012 9.52910 25050 ft 403 kts 204°
2026-04-26 20:14 53.11566 9.52069 25354 ft 405 kts 204°
2026-04-26 20:15 53.09466 9.50850 25779 ft 407 kts 204°
2026-04-26 20:15 53.06784 9.49297 26300 ft 410 kts 204°
2026-04-26 20:15 53.04079 9.47736 26806 ft 414 kts 203°
2026-04-26 20:15 53.01349 9.46162 27301 ft 416 kts 203°
2026-04-26 20:16 52.98532 9.44878 27772 ft 424 kts 194°
2026-04-26 20:16 52.95591 9.44201 28237 ft 429 kts 191°
2026-04-26 20:16 52.92626 9.43576 28701 ft 431 kts 191°
2026-04-26 20:16 52.89676 9.42951 29132 ft 434 kts 191°
2026-04-26 20:17 52.86627 9.42302 29575 ft 437 kts 191°
2026-04-26 20:17 52.83644 9.41662 29989 ft 440 kts 192°
2026-04-26 20:17 52.80600 9.41011 30401 ft 443 kts 192°
2026-04-26 20:17 52.78529 9.40570 30679 ft 444 kts 192°
2026-04-26 20:18 52.74455 9.39712 31207 ft 447 kts 191°
2026-04-26 20:18 52.71361 9.39059 31590 ft 450 kts 192°
2026-04-26 20:18 52.68250 9.38400 31963 ft 452 kts 192°
2026-04-26 20:18 52.65131 9.37739 32450 ft 451 kts 192°
2026-04-26 20:19 52.62028 9.37082 32967 ft 449 kts 192°
2026-04-26 20:19 52.58946 9.36369 33456 ft 446 kts 193°
2026-04-26 20:19 52.55884 9.35578 33924 ft 445 kts 194°
2026-04-26 20:19 52.54320 9.35153 34176 ft 445 kts 194°
2026-04-26 20:20 52.51445 9.34358 34660 ft 443 kts 194°
2026-04-26 20:20 52.48415 9.33522 35112 ft 442 kts 194°
2026-04-26 20:20 52.45378 9.32697 35525 ft 442 kts 193°
2026-04-26 20:20 52.42345 9.31892 35921 ft 442 kts 193°
2026-04-26 20:21 52.39309 9.31099 36297 ft 442 kts 193°
2026-04-26 20:21 52.36271 9.30316 36646 ft 442 kts 193°
2026-04-26 20:21 52.33268 9.29539 36973 ft 442 kts 193°
2026-04-26 20:21 52.30193 9.28742 37299 ft 443 kts 193°
2026-04-26 20:22 52.27148 9.27948 37610 ft 443 kts 193°
2026-04-26 20:22 52.24147 9.27162 37904 ft 443 kts 193°
2026-04-26 20:22 52.21099 9.26418 38206 ft 443 kts 192°
2026-04-26 20:22 52.18039 9.25794 38492 ft 444 kts 191°
2026-04-26 20:23 52.14960 9.25256 38767 ft 445 kts 190°
2026-04-26 20:23 52.11879 9.24760 39037 ft 445 kts 189°
2026-04-26 20:23 52.08794 9.24267 39248 ft 446 kts 190°
2026-04-26 20:24 52.02642 9.23147 39302 ft 444 kts 192°
2026-04-26 20:24 51.96555 9.21561 39302 ft 442 kts 194°
2026-04-26 20:25 51.90502 9.19837 39303 ft 441 kts 194°
2026-04-26 20:25 51.84437 9.18260 39304 ft 441 kts 192°
2026-04-26 20:26 51.78351 9.16988 39304 ft 442 kts 191°
2026-04-26 20:26 51.72293 9.15765 39305 ft 441 kts 191°
2026-04-26 20:27 51.66205 9.14473 39302 ft 441 kts 192°
2026-04-26 20:27 51.60126 9.13145 39299 ft 441 kts 192°
2026-04-26 20:28 51.54054 9.11831 39298 ft 441 kts 192°
2026-04-26 20:28 51.47989 9.10406 39298 ft 439 kts 194°
2026-04-26 20:29 51.42023 9.08398 39299 ft 437 kts 197°
2026-04-26 20:29 51.36094 9.06193 39301 ft 437 kts 197°
2026-04-26 20:30 51.30141 9.04159 39296 ft 438 kts 194°
2026-04-26 20:30 51.24121 9.02832 39292 ft 441 kts 190°
2026-04-26 20:31 51.18019 9.01821 39290 ft 441 kts 190°
2026-04-26 20:31 51.11925 9.00730 39281 ft 440 kts 191°
2026-04-26 20:32 51.05845 8.99519 39287 ft 440 kts 191°
2026-04-26 20:32 50.99770 8.98283 39284 ft 440 kts 191°
2026-04-26 20:33 50.93685 8.97060 39279 ft 440 kts 191°
2026-04-26 20:33 50.87623 8.95856 39274 ft 438 kts 191°
2026-04-26 20:34 50.81567 8.94676 39277 ft 438 kts 191°
2026-04-26 20:34 50.75550 8.93501 39278 ft 439 kts 191°
2026-04-26 20:35 50.69489 8.92312 39279 ft 439 kts 191°
2026-04-26 20:35 50.63425 8.91118 39285 ft 439 kts 191°
2026-04-26 20:36 50.57367 8.89937 39284 ft 439 kts 191°
2026-04-26 20:36 50.51304 8.88766 39281 ft 438 kts 191°
2026-04-26 20:37 50.45251 8.87601 39277 ft 438 kts 191°
2026-04-26 20:37 50.39193 8.86425 39278 ft 439 kts 191°
2026-04-26 20:38 50.33156 8.85265 39273 ft 438 kts 191°
2026-04-26 20:38 50.27089 8.84107 39275 ft 438 kts 190°
2026-04-26 20:39 50.21045 8.82952 39271 ft 438 kts 190°
2026-04-26 20:39 50.14997 8.81796 39274 ft 438 kts 191°
2026-04-26 20:40 50.08953 8.80643 39274 ft 438 kts 191°
2026-04-26 20:40 50.02948 8.79487 39272 ft 437 kts 191°
2026-04-26 20:41 49.96935 8.78240 39266 ft 435 kts 191°
2026-04-26 20:41 49.90936 8.76966 39265 ft 435 kts 191°
2026-04-26 20:42 49.84930 8.75714 39265 ft 435 kts 191°
2026-04-26 20:42 49.78919 8.74469 39261 ft 435 kts 191°
2026-04-26 20:43 49.72903 8.73242 39261 ft 436 kts 191°
2026-04-26 20:43 49.66894 8.72010 39260 ft 436 kts 191°
2026-04-26 20:44 49.60877 8.70794 39254 ft 436 kts 191°
2026-04-26 20:44 49.54868 8.69578 39254 ft 435 kts 191°
2026-04-26 20:45 49.48853 8.68369 39246 ft 436 kts 191°
2026-04-26 20:45 49.42885 8.67182 39244 ft 434 kts 191°
2026-04-26 20:46 49.36890 8.65968 39236 ft 435 kts 191°
2026-04-26 20:46 49.30890 8.64747 39236 ft 435 kts 191°
2026-04-26 20:47 49.24898 8.63544 39233 ft 434 kts 191°
2026-04-26 20:47 49.18906 8.62348 39235 ft 434 kts 191°
2026-04-26 20:48 49.12914 8.61138 39232 ft 434 kts 191°
2026-04-26 20:48 49.06921 8.59928 39228 ft 434 kts 191°
2026-04-26 20:49 49.00982 8.58737 39230 ft 434 kts 190°
2026-04-26 20:49 48.95038 8.57290 39232 ft 432 kts 194°
2026-04-26 20:50 48.89174 8.55306 39228 ft 431 kts 196°
2026-04-26 20:50 48.83317 8.53251 39233 ft 432 kts 195°
2026-04-26 20:51 48.77443 8.51319 39236 ft 432 kts 195°
2026-04-26 20:51 48.71552 8.49443 39239 ft 433 kts 195°
2026-04-26 20:52 48.65660 8.47557 39245 ft 432 kts 194°
2026-04-26 20:52 48.59774 8.45679 39243 ft 433 kts 195°
2026-04-26 20:53 48.53883 8.43800 39243 ft 432 kts 195°
2026-04-26 20:53 48.48039 8.41935 39243 ft 433 kts 194°
2026-04-26 20:54 48.42144 8.40066 39247 ft 433 kts 194°
2026-04-26 20:54 48.36247 8.38199 39246 ft 433 kts 194°
2026-04-26 20:55 48.30359 8.36327 39246 ft 432 kts 195°
2026-04-26 20:55 48.24470 8.34458 39239 ft 432 kts 194°
2026-04-26 20:56 48.18586 8.32622 39229 ft 432 kts 193°
2026-04-26 20:56 48.12592 8.32179 39219 ft 436 kts 181°
2026-04-26 20:57 48.06524 8.32273 39213 ft 436 kts 182°
2026-04-26 20:57 48.01450 8.32340 39209 ft 436 kts 182°
2026-04-26 20:58 47.95427 8.32427 39206 ft 435 kts 182°
2026-04-26 20:58 47.89365 8.32511 39207 ft 435 kts 182°
2026-04-26 20:59 47.83310 8.32590 39209 ft 435 kts 182°
2026-04-26 20:59 47.77240 8.32674 39206 ft 436 kts 182°
2026-04-26 21:00 47.71215 8.32760 39214 ft 435 kts 182°
2026-04-26 21:00 47.65162 8.32837 39220 ft 435 kts 182°
2026-04-26 21:01 47.59112 8.32924 39221 ft 434 kts 182°
2026-04-26 21:01 47.53077 8.33014 39223 ft 434 kts 182°
2026-04-26 21:02 47.47020 8.33093 39226 ft 433 kts 182°
2026-04-26 21:02 47.41034 8.33167 39222 ft 433 kts 182°
2026-04-26 21:03 47.35009 8.33249 39221 ft 432 kts 182°
2026-04-26 21:03 47.28981 8.33389 39212 ft 433 kts 180°
2026-04-26 21:04 47.22974 8.34084 39207 ft 434 kts 176°
2026-04-26 21:04 47.16969 8.35070 39194 ft 435 kts 176°
2026-04-26 21:05 47.10936 8.35993 39195 ft 436 kts 177°
2026-04-26 21:05 47.04915 8.36813 39199 ft 437 kts 177°
2026-04-26 21:06 46.98848 8.37612 39206 ft 438 kts 177°
2026-04-26 21:06 46.92779 8.38427 39214 ft 438 kts 177°
2026-04-26 21:07 46.86721 8.39251 39213 ft 437 kts 177°
2026-04-26 21:07 46.83656 8.39666 38886 ft 450 kts 177°
2026-04-26 21:07 46.80521 8.40085 38387 ft 452 kts 177°
2026-04-26 21:07 46.77401 8.40504 37816 ft 450 kts 177°
2026-04-26 21:08 46.74284 8.40927 37216 ft 449 kts 177°
2026-04-26 21:08 46.71173 8.41352 36616 ft 449 kts 177°
2026-04-26 21:08 46.68069 8.41775 36012 ft 447 kts 177°
2026-04-26 21:08 46.64983 8.42193 35415 ft 445 kts 177°
2026-04-26 21:09 46.61912 8.42606 34813 ft 442 kts 177°
2026-04-26 21:09 46.58855 8.43021 34212 ft 440 kts 177°
2026-04-26 21:09 46.55810 8.43436 33609 ft 437 kts 177°
2026-04-26 21:09 46.52789 8.43841 33008 ft 434 kts 177°
2026-04-26 21:10 46.49826 8.44230 32417 ft 432 kts 177°
2026-04-26 21:10 46.46840 8.44621 31811 ft 429 kts 177°
2026-04-26 21:10 46.43867 8.45013 31214 ft 428 kts 178°
2026-04-26 21:10 46.40906 8.45404 30601 ft 427 kts 177°
2026-04-26 21:11 46.37957 8.45791 30010 ft 425 kts 177°
2026-04-26 21:11 46.35019 8.46178 29412 ft 423 kts 177°
2026-04-26 21:11 46.32097 8.46565 28808 ft 420 kts 177°
2026-04-26 21:11 46.29197 8.46956 28207 ft 417 kts 176°
2026-04-26 21:12 46.26314 8.47344 27607 ft 415 kts 176°
2026-04-26 21:12 46.23447 8.47743 27003 ft 413 kts 176°
2026-04-26 21:12 46.20598 8.48152 26403 ft 410 kts 176°
2026-04-26 21:12 46.17769 8.48565 25819 ft 408 kts 176°
2026-04-26 21:13 46.14949 8.48977 25209 ft 407 kts 176°
2026-04-26 21:13 46.12135 8.49396 24607 ft 406 kts 174°
2026-04-26 21:13 46.09392 8.50382 24006 ft 408 kts 161°
2026-04-26 21:13 46.06737 8.51805 23409 ft 407 kts 160°
2026-04-26 21:14 46.04085 8.53244 22803 ft 408 kts 160°
2026-04-26 21:14 46.01436 8.54680 22195 ft 406 kts 160°
2026-04-26 21:14 45.98793 8.56106 21598 ft 405 kts 160°
2026-04-26 21:14 45.96152 8.57532 20996 ft 405 kts 160°
2026-04-26 21:15 45.93518 8.58951 20386 ft 404 kts 160°
2026-04-26 21:15 45.90892 8.60386 19785 ft 403 kts 158°
2026-04-26 21:15 45.88484 8.62432 19180 ft 404 kts 143°
2026-04-26 21:15 45.86301 8.64959 18583 ft 403 kts 141°
2026-04-26 21:16 45.84160 8.67449 18039 ft 400 kts 141°
2026-04-26 21:16 45.82010 8.69948 17483 ft 396 kts 141°
2026-04-26 21:16 45.79874 8.72421 16938 ft 393 kts 141°
2026-04-26 21:16 45.77755 8.74871 16394 ft 390 kts 142°
2026-04-26 21:17 45.75552 8.77086 15832 ft 386 kts 152°
2026-04-26 21:17 45.73202 8.78910 15280 ft 382 kts 152°
2026-04-26 21:17 45.70875 8.80704 14727 ft 378 kts 152°
2026-04-26 21:17 45.68574 8.82468 14175 ft 374 kts 152°
2026-04-26 21:18 45.66291 8.84215 13622 ft 370 kts 152°
2026-04-26 21:18 45.64031 8.85940 13068 ft 366 kts 152°
2026-04-26 21:18 45.61765 8.87531 12512 ft 361 kts 160°
2026-04-26 21:18 45.59343 8.88345 11960 ft 355 kts 169°
2026-04-26 21:19 45.56927 8.89004 11416 ft 351 kts 169°
2026-04-26 21:19 45.54545 8.89649 10865 ft 346 kts 169°
2026-04-26 21:19 45.52190 8.90285 10309 ft 342 kts 169°
2026-04-26 21:19 45.49859 8.90915 9762 ft 339 kts 169°
2026-04-26 21:20 45.47554 8.91539 9209 ft 335 kts 169°
2026-04-26 21:20 45.45308 8.92149 8665 ft 331 kts 169°
2026-04-26 21:20 45.43057 8.92760 8111 ft 328 kts 169°
2026-04-26 21:20 45.40831 8.93366 7562 ft 324 kts 169°
2026-04-26 21:21 45.38625 8.93968 7016 ft 321 kts 169°
2026-04-26 21:21 45.36443 8.94564 6461 ft 317 kts 169°
2026-04-26 21:21 45.34292 8.95148 5910 ft 314 kts 169°
2026-04-26 21:21 45.32157 8.95725 5356 ft 310 kts 170°
2026-04-26 21:22 45.30039 8.95883 4803 ft 305 kts 187°
2026-04-26 21:22 45.28078 8.95013 4249 ft 288 kts 208°
2026-04-26 21:22 45.26526 8.93329 3700 ft 276 kts 228°
2026-04-26 21:23 45.25071 8.88483 2988 ft 261 kts 266°
2026-04-26 21:23 45.25208 8.86023 2983 ft 241 kts 283°
2026-04-26 21:23 45.25788 8.83890 2987 ft 224 kts 300°
2026-04-26 21:23 45.26781 8.82221 3000 ft 223 kts 323°
2026-04-26 21:24 45.28186 8.81354 3000 ft 221 kts 350°
2026-04-26 21:24 45.29702 8.81078 2996 ft 214 kts 353°
2026-04-26 21:24 45.31122 8.80835 3014 ft 204 kts 353°
2026-04-26 21:24 45.32522 8.80596 3007 ft 200 kts 353°
2026-04-26 21:25 45.33902 8.80362 3007 ft 199 kts 353°
2026-04-26 21:25 45.35274 8.80124 3006 ft 198 kts 354°
2026-04-26 21:25 45.36643 8.79892 3007 ft 198 kts 354°
2026-04-26 21:25 45.38012 8.79660 3012 ft 199 kts 354°
2026-04-26 21:26 45.39365 8.79428 3007 ft 193 kts 354°
2026-04-26 21:26 45.40683 8.79203 3007 ft 190 kts 354°
2026-04-26 21:26 45.41995 8.79002 3009 ft 189 kts 354°
2026-04-26 21:26 45.43297 8.78739 3010 ft 189 kts 351°
2026-04-26 21:27 45.44585 8.78415 3008 ft 188 kts 350°
2026-04-26 21:27 45.45878 8.78068 3008 ft 189 kts 349°
2026-04-26 21:27 45.47142 8.77721 3005 ft 178 kts 349°
2026-04-26 21:27 45.48331 8.77396 3009 ft 171 kts 349°
2026-04-26 21:28 45.49446 8.77088 2992 ft 150 kts 349°
2026-04-26 21:28 45.50426 8.76818 2873 ft 140 kts 349°
2026-04-26 21:28 45.51364 8.76562 2724 ft 136 kts 349°
2026-04-26 21:28 45.52289 8.76313 2511 ft 135 kts 351°
2026-04-26 21:29 45.53201 8.76109 2307 ft 134 kts 349°
2026-04-26 21:29 45.54105 8.75811 2127 ft 134 kts 346°
2026-04-26 21:29 45.55015 8.75558 1938 ft 132 kts 349°
2026-04-26 21:29 45.55914 8.75305 1802 ft 131 kts 349°
2026-04-26 21:30 45.56812 8.75049 1652 ft 131 kts 349°
2026-04-26 21:30 45.57718 8.74811 1492 ft 134 kts 349°
2026-04-26 21:30 45.58638 8.74544 1332 ft 135 kts 350°
2026-04-26 21:30 45.59573 8.74312 1110 ft 136 kts 350°
2026-04-26 21:31 45.60477 8.74064 936 ft 131 kts 349°
2026-04-26 21:31 45.61367 8.73802 799 ft 130 kts 348°
2026-04-26 21:31 45.62251 8.73558 746 ft 120 kts 350°
2026-04-26 21:31 45.62940 8.73373 736 ft 80 kts 348°
2026-04-26 21:32 45.63317 8.73264 736 ft 29 kts 349°
2026-04-26 21:32 45.63507 8.73217 739 ft 27 kts 351°
2026-04-26 21:32 45.63674 8.73121 740 ft 26 kts 332°
2026-04-26 21:32 45.63799 8.72946 737 ft 19 kts 303°
2026-04-26 21:33 45.63835 8.72870 736 ft 7 kts 305°
2026-04-26 21:33 45.63853 8.72834 736 ft 0 kts 304°
2026-04-26 21:33 45.63854 8.72832 736 ft 1 kts 304°
2026-04-26 21:33 45.63868 8.72817 736 ft 5 kts 326°
2026-04-26 21:34 45.63920 8.72793 736 ft 10 kts 346°
2026-04-26 21:34 45.63997 8.72770 736 ft 13 kts 350°
2026-04-26 21:34 45.64099 8.72743 736 ft 16 kts 349°
2026-04-26 21:34 45.64214 8.72713 736 ft 17 kts 349°
2026-04-26 21:35 45.64339 8.72681 736 ft 19 kts 352°
2026-04-26 21:35 45.64475 8.72657 736 ft 21 kts 353°
2026-04-26 21:35 45.64609 8.72622 736 ft 10 kts 348°
2026-04-26 21:35 45.64617 8.72593 736 ft 7 kts 268°
2026-04-26 21:36 45.64604 8.72511 736 ft 4 kts 259°
2026-04-26 21:36 45.64603 8.72507 736 ft 0 kts 258°